Location: Bijele Vode
(45.2833°N, 16.2000°E)
Time: 10:38:23
(UTC+00:00)

Cosmos 1125 Rocket - Visible Passes

Search period start: 17 January 2021 00:00
Search period end: 27 January 2021 00:00
Orbit: 757 x 780 km, 74.0° (Epoch: 16 January)

Date Brightness Start Highest point End Pass type
(mag) Time Alt. Az. Time Alt. Az. Time Alt. Az.
17 Jan 6.2 04:25:08 10° NNE 04:26:54 12° NE 04:28:41 10° ENE visible
18 Jan 4.8 05:28:08 10° N 05:33:07 40° ENE 05:38:05 10° SE visible
19 Jan 5.5 04:51:36 10° N 04:56:01 26° NE 05:00:25 10° ESE visible
20 Jan 6.0 04:15:19 10° N 04:18:47 17° NE 04:22:15 10° E visible
21 Jan 6.3 03:39:42 10° NNE 03:41:27 11° NE 03:43:10 10° ENE visible
21 Jan 4.0 05:19:22 10° NNW 05:24:39 63° ENE 05:29:55 10° SSE visible
22 Jan 4.8 04:42:40 10° N 04:47:39 39° ENE 04:52:37 10° SE visible
23 Jan 5.5 04:06:08 10° N 04:10:32 26° NE 04:14:56 10° ESE visible
23 Jan 3.8 05:47:46 10° NNW 05:52:53 50° WSW 05:57:59 10° S visible
24 Jan 6.0 03:29:52 10° N 03:33:19 17° NE 03:36:45 10° E visible
24 Jan 3.5 05:10:45 10° NNW 05:16:05 82° WSW 05:21:24 10° SSE visible
25 Jan 6.3 02:54:18 10° NNE 02:55:58 11° NE 02:57:37 10° ENE visible
25 Jan 4.0 04:33:55 10° NNW 04:39:12 62° ENE 04:44:27 10° SSE visible
26 Jan 4.8 03:57:17 10° N 04:02:11 39° ENE 04:07:08 10° SE visible
26 Jan 4.4 05:39:32 10° NW 05:44:08 30° W 05:48:43 10° SSW visible
26 Jan 5.3 18:36:22 10° S 18:37:52 20° S 18:37:52 20° S visible
